Find Starlink 33613

NORAD ID: 63286 Int'l Des: 2025-053 Owner: SPXS Country: US Constellation: starlink operational
LEOCIRCULAR

当前视图

正在加载3D地球...

About Starlink 33613

Starlink 33613 (NORAD 63286) is a starlink constellation satellite (v2 mini) launched Mar 15, 2025 by SPXS of US. It operates in LEO, CIRCULAR orbit with a mass of 575.00 kg.

即将过境

Passes for default location (London). Set your location on the main map for personalized predictions.

高度历史

Loading altitude history...

两行轨道根数

1 63286U 25053X 26235.70087000 .00009963 00000-0 37117-3 0 9999
2 63286 43.0001 18.7603 0001235 267.8771 92.1939 15.27573103 81735
Epoch: Aug 23, 2026 • Age: 19 hours

当前状态

高度 482.9 km
远地点 / 近地点 N/A
速度 7.63 km/s
星下点 21.11°N, 111.02°W
发射日期 Mar 15, 2025
运行时间 1.4 years
类型 internet

技术详情

分类 Payload
质量 575.00 kg
干质量 530.00 kg
总质量 575.00 kg
长度 0.30 m
直径 4.10 m
跨度 29.00 m
形状 Box + pan
制造商 SPXS
平台类型 Starlink V2MO
阶段状态 In Orbit
所有者/国家 SPXS/US

Most Searched